Location: Marsån
(66.4167°N, 22.2833°E)
Time: 07:39:54
(UTC+00:00)

Spot 2 Rocket - Pass Details

Date: 24 February 2024
Orbit: 754 x 770 km, 98.4° (Epoch: 20 April)

Event Time Altitude Azimuth Distance (km) Brightness Sun altitude
Exits shadow 18:12:00 30° 112° (ESE) 1,353 4.2 -17.3°
Maximum altitude 18:14:11 50° 54° (NE) 979 3.8 -17.6°
Drops below altitude 10° 18:19:09 10° 340° (NNW) 2,333 6.5 -18.0°
Sets 18:21:31 0° 336° (NNW) 3,264 7.4 -18.2°
